STARLINK-34112, 63969

Orbit data source: Space-Track

STARLINK-34112, 63969 is a payload satellite owned by SpaceX/Seattle (US) in LEO that was launched on Tue, 13 May 2025 UTC via an FALCON 9 launch vehicle from the Air Force Eastern Test Range (AFETR). Payload-class satellites include a variety of spacecraft equipped with specific instruments for various scientific and technological missions. These include communications satellites like Starlink; space stations such as the ISS; scientific satellites like the Hubble; Earth observation satellites from companies like Planet Labs, Umbra, and HawkEye 360; GPS; miniature CubeSats for education and research; and military/defense satellites.

Loading next visibility...
Identifier
63969, 2025-099T
Orbit
LEO
Country
Flag of USUS
Related business
Manufacturer
SpaceX/Seattle
Mission
Operational Commercial Communications
Bus & Motor
STARLINK V2MO, Unknown motor
Mass
575 kg wet, ~530 kg dry
Launch date (UTC)
2025-05-13 (11 months ago)
Launch vehicle
FALCON 9
Launch site
Air Force Eastern Test Range (AFETR)
Object type
Payload
Rocket body
Debris
Shape & HBR
Box + 2 Pan, 17.7 m
Radar Cross Section
36.964 m², Large (>1 m²)

Expand to show TLE details & history
Last TLE update: 22 hours ago

TLE from 22 hours ago
0 STARLINK-34112
1 63969U 25099T   26093.55621839  .00027394  00000-0  10008-2 0  9993
2 63969  43.0042  35.4082 0000765 334.5947  25.4867 15.27597776 51142
Epoch: 2026-04-03T13:20Z
TLE epoch observation values (Epoch: 2026-04-03T13:20:57.268Z)
Latitude
-0.00004°
Longitude
3.28089°
Altitude
482.298 km
Speed
7.626 km/s
True Right ascension
02h 21m 37s
True Declination
0° 00' 00"
Sunlit
Object was in daylight at epoch
Visualization orbit readout
Latitude
Unknown
Longitude
Unknown
Altitude
Unknown
Speed
Unknown
Apparent Right ascension
Unknown
Apparent Declination
Unknown
Sunlit
N/A
Visualization observer readout
Local Sidereal Time
17:26:18
Azimuth
Unknown
Elevation
Unknown
Doppler factor
Unknown
Orbital elements
Apogee altitude
485.465 km
Perigee altitude
484.415 km
Semi-major axis
6,863.077 km
Eccentricity
0.00008
Inclination
43.0042°
RAAN
35.4082°
Arg. of periapsis
334.5947°
True anomaly
25.49047°
Mean anomaly
25.4867°
Eccentric anomaly
25.48859°
Mean motion
3.81738 °/min
Orbital period
94.31 mins
BSTAR
0.0010008
Loading maneuver chart data...
Computing Atmospheric mass density...
Loading historical data...
Loading historical data...
Loading historical data...
Loading historical data...
Loading historical data...
Loading historical data...
Loading historical data...

Documentation

Showing up to 5 results
|